Powrót do katalogu

BREEZE-M DEB

AktywnyHEO
NORAD 38601·DEBRIS·🇷🇺 Russia

Wystrzelony Mar 14, 2008 z Baikonur Cosmodrome

Loading…

Następne Przeloty (najbliższe 24 godziny)

TLE

ŚwieżeSource: Space-Track

Epoka: Sep 13, 2026, 11:41 UTC

1 38601U 08011AY  26256.48683264  .00033596  00000-0  25552-2 0  9997
2 38601  48.0870 325.9792 5162233 242.3712  56.6146  5.40706055241936

Śledź BREEZE-M DEB w czasie rzeczywistym z AllMySat

Download on the App Store